| time (UTC) | temp F | wind direction | speed MPH | gust MPH | rain 1hr in | rain 24hr in | rain mn in | humidity % | barometer mb |
| 20260905204824 | 74 | 279 | 0.0 | 1.0 | 0.00 | 0.00 | 0.00 | 49 | 1020.6 |
| 20260905204325 | 74 | 279 | 1.0 | 1.0 | 0.00 | 0.00 | 0.00 | 49 | 1020.6 |
| 20260905203824 | 74 | 279 | 1.0 | 1.0 | 0.00 | 0.00 | 0.00 | 49 | 1020.6 |
| 20260905203322 | 74 | 279 | 1.0 | 2.0 | 0.00 | 0.00 | 0.00 | 49 | 1020.7 |
| 20260905202826 | 74 | 279 | 1.0 | 2.0 | 0.00 | 0.00 | 0.00 | 49 | 1020.8 |
| 20260905202322 | 75 | 279 | 1.0 | 1.0 | 0.00 | 0.00 | 0.00 | 49 | 1020.8 |
| 20260905202133 | 76 | 269 | 1.0 | 1.0 | 0.00 | 0.00 | 0.00 | 47 | 1020.7 |
| 20260905201322 | 76 | 269 | 1.0 | 1.0 | 0.00 | 0.00 | 0.00 | 45 | 1020.7 |
| 20260905200828 | 76 | 92 | 1.0 | 1.0 | 0.00 | 0.00 | 0.00 | 44 | 1020.7 |
| 20260905200322 | 77 | 92 | 0.0 | 1.0 | 0.00 | 0.00 | 0.00 | 43 | 1020.6 |
| 20260905195955 | 78 | 92 | 0.0 | 1.0 | 0.00 | 0.00 | 0.00 | 41 | 1020.7 |
| 20260905195918 | 77 | 92 | 1.0 | 1.0 | 0.00 | 0.00 | 0.00 | 42 | 1020.6 |
| 20260905194824 | 79 | 92 | 0.0 | 1.0 | 0.00 | 0.00 | 0.00 | 41 | 1020.7 |
| 20260905194634 | 79 | 92 | 0.0 | 1.0 | 0.00 | 0.00 | 0.00 | 40 | 1020.7 |
| 20260905194138 | 79 | 92 | 0.0 | 1.0 | 0.00 | 0.00 | 0.00 | 39 | 1020.6 |
| 20260905193634 | 80 | 92 | 0.0 | 1.0 | 0.00 | 0.00 | 0.00 | 39 | 1020.8 |
| 20260905193131 | 80 | 92 | 0.0 | 0.0 | 0.00 | 0.00 | 0.00 | 38 | 1020.6 |
| 20260905192323 | 80 | 92 | 0.0 | 0.0 | 0.00 | 0.00 | 0.00 | 38 | 1020.6 |
| 20260905191821 | 81 | 92 | 0.0 | 0.0 | 0.00 | 0.00 | 0.00 | 38 | 1020.6 |
| 20260905191322 | 81 | 92 | 0.0 | 0.0 | 0.00 | 0.00 | 0.00 | 38 | 1020.5 |
| 20260905190821 | 81 | 92 | 0.0 | 0.0 | 0.00 | 0.00 | 0.00 | 38 | 1020.5 |
| 20260905190321 | 82 | 92 | 0.0 | 0.0 | 0.00 | 0.00 | 0.00 | 38 | 1020.5 |
| 20260905185821 | 82 | 92 | 0.0 | 0.0 | 0.00 | 0.00 | 0.00 | 37 | 1020.5 |
| 20260905185320 | 82 | 92 | 0.0 | 0.0 | 0.00 | 0.00 | 0.00 | 37 | 1020.6 |
| 20260905184821 | 82 | 92 | 0.0 | 1.0 | 0.00 | 0.00 | 0.00 | 37 | 1020.7 |
| 20260905184323 | 82 | 92 | 0.0 | 1.0 | 0.00 | 0.00 | 0.00 | 37 | 1020.6 |
| 20260905183821 | 83 | 92 | 0.0 | 0.0 | 0.00 | 0.00 | 0.00 | 36 | 1020.6 |
| 20260905183321 | 83 | 92 | 0.0 | 0.0 | 0.00 | 0.00 | 0.00 | 36 | 1020.7 |
| 20260905182824 | 83 | 92 | 0.0 | 0.0 | 0.00 | 0.00 | 0.00 | 35 | 1020.7 |
| 20260905182320 | 84 | 92 | 0.0 | 1.0 | 0.00 | 0.00 | 0.00 | 35 | 1020.7 |
| 20260905181819 | 84 | 92 | 0.0 | 1.0 | 0.00 | 0.00 | 0.00 | 34 | 1020.7 |
| 20260905181631 | 84 | 92 | 0.0 | 1.0 | 0.00 | 0.00 | 0.00 | 34 | 1020.7 |
| 20260905180819 | 84 | 92 | 0.0 | 1.0 | 0.00 | 0.00 | 0.00 | 34 | 1020.8 |
| 20260905180320 | 84 | 92 | 0.0 | 1.0 | 0.00 | 0.00 | 0.00 | 34 | 1020.9 |
| 20260905175819 | 85 | 92 | 0.0 | 1.0 | 0.00 | 0.00 | 0.00 | 34 | 1020.8 |
| 20260905175320 | 85 | 92 | 0.0 | 0.0 | 0.00 | 0.00 | 0.00 | 35 | 1020.8 |
| 20260905174818 | 85 | 92 | 0.0 | 1.0 | 0.00 | 0.00 | 0.00 | 35 | 1020.9 |
| 20260905174319 | 85 | 92 | 0.0 | 1.0 | 0.00 | 0.00 | 0.00 | 36 | 1020.9 |
| 20260905173822 | 85 | 92 | 0.0 | 1.0 | 0.00 | 0.00 | 0.00 | 37 | 1020.9 |
| 20260905173318 | 86 | 92 | 0.0 | 1.0 | 0.00 | 0.00 | 0.00 | 37 | 1020.9 |
| 20260905172820 | 86 | 92 | 0.0 | 1.0 | 0.00 | 0.00 | 0.00 | 38 | 1020.8 |
| 20260905172317 | 87 | 92 | 0.0 | 2.0 | 0.00 | 0.00 | 0.00 | 37 | 1020.7 |
| 20260905171819 | 87 | 92 | 0.0 | 4.0 | 0.00 | 0.00 | 0.00 | 37 | 1020.8 |
| 20260905171320 | 88 | 102 | 0.0 | 4.0 | 0.00 | 0.00 | 0.00 | 37 | 1020.8 |
| 20260905170818 | 88 | 76 | 0.0 | 3.0 | 0.00 | 0.00 | 0.00 | 37 | 1020.8 |
| 20260905170630 | 88 | 113 | 0.0 | 3.0 | 0.00 | 0.00 | 0.00 | 37 | 1020.8 |
| 20260905165817 | 88 | 107 | 0.0 | 1.0 | 0.00 | 0.00 | 0.00 | 37 | 1020.8 |
| 20260905165628 | 88 | 110 | 0.0 | 1.0 | 0.00 | 0.00 | 0.00 | 37 | 1020.9 |
| 20260905164820 | 88 | 110 | 0.0 | 2.0 | 0.00 | 0.00 | 0.00 | 37 | 1020.9 |
| 20260905164318 | 88 | 110 | 1.0 | 2.0 | 0.00 | 0.00 | 0.00 | 36 | 1020.8 |
| 20260905163818 | 89 | 89 | 0.0 | 2.0 | 0.00 | 0.00 | 0.00 | 37 | 1020.8 |
| 20260905163319 | 89 | 89 | 1.0 | 4.0 | 0.00 | 0.00 | 0.00 | 37 | 1020.9 |
| 20260905162817 | 89 | 83 | 2.0 | 5.0 | 0.00 | 0.00 | 0.00 | 37 | 1020.8 |
| 20260905162319 | 89 | 114 | 2.0 | 5.0 | 0.00 | 0.00 | 0.00 | 36 | 1020.9 |
| 20260905161817 | 89 | 80 | 0.0 | 4.0 | 0.00 | 0.00 | 0.00 | 37 | 1020.8 |
| 20260905161329 | 89 | 110 | 0.0 | 4.0 | 0.00 | 0.00 | 0.00 | 37 | 1020.9 |
| 20260905160817 | 89 | 100 | 2.0 | 4.0 | 0.00 | 0.00 | 0.00 | 36 | 1020.9 |
| 20260905160315 | 89 | 117 | 1.0 | 3.0 | 0.00 | 0.00 | 0.00 | 35 | 1020.9 |
| 20260905160135 | 89 | 20 | 0.0 | 3.0 | 0.00 | 0.00 | 0.00 | 36 | 1020.9 |
| 20260905155316 | 89 | 83 | 0.0 | 4.0 | 0.00 | 0.00 | 0.00 | 36 | 1021.0 |
| 20260905154817 | 89 | 93 | 2.0 | 4.0 | 0.00 | 0.00 | 0.00 | 37 | 1021.0 |
| 20260905154317 | 89 | 102 | 0.0 | 2.0 | 0.00 | 0.00 | 0.00 | 36 | 1021.0 |
| 20260905153815 | 90 | 114 | 0.0 | 4.0 | 0.00 | 0.00 | 0.00 | 35 | 1021.0 |
| 20260905153316 | 90 | 92 | 2.0 | 4.0 | 0.00 | 0.00 | 0.00 | 35 | 1021.0 |
| 20260905152816 | 90 | 107 | 1.0 | 3.0 | 0.00 | 0.00 | 0.00 | 36 | 1021.1 |
| 20260905152317 | 90 | 121 | 0.0 | 3.0 | 0.00 | 0.00 | 0.00 | 36 | 1021.0 |
| 20260905152124 | 91 | 110 | 1.0 | 3.0 | 0.00 | 0.00 | 0.00 | 35 | 1021.0 |
| 20260905151317 | 91 | 89 | 0.0 | 4.0 | 0.00 | 0.00 | 0.00 | 36 | 1021.1 |
| 20260905150816 | 91 | 107 | 0.0 | 4.0 | 0.00 | 0.00 | 0.00 | 34 | 1021.2 |
| 20260905150316 | 91 | 134 | 0.0 | 3.0 | 0.00 | 0.00 | 0.00 | 34 | 1021.3 |
| 20260905145815 | 92 | 103 | 1.0 | 3.0 | 0.00 | 0.00 | 0.00 | 34 | 1021.3 |
| 20260905145315 | 92 | 89 | 0.0 | 2.0 | 0.00 | 0.00 | 0.00 | 34 | 1021.4 |
| 20260905144817 | 92 | 89 | 0.0 | 1.0 | 0.00 | 0.00 | 0.00 | 33 | 1021.4 |
| 20260905144316 | 91 | 78 | 0.0 | 1.0 | 0.00 | 0.00 | 0.00 | 34 | 1021.4 |
| 20260905143816 | 91 | 78 | 0.0 | 2.0 | 0.00 | 0.00 | 0.00 | 34 | 1021.4 |
| 20260905143315 | 90 | 78 | 0.0 | 2.0 | 0.00 | 0.00 | 0.00 | 34 | 1021.5 |
| 20260905142946 | 91 | 113 | 2.0 | 5.0 | 0.00 | 0.00 | 0.00 | 34 | 1021.6 |
| 20260905142914 | 90 | 118 | 0.0 | 5.0 | 0.00 | 0.00 | 0.00 | 35 | 1021.6 |
| 20260905141816 | 91 | 89 | 0.0 | 3.0 | 0.00 | 0.00 | 0.00 | 35 | 1021.7 |
| 20260905141313 | 91 | 23 | 0.0 | 3.0 | 0.00 | 0.00 | 0.00 | 34 | 1021.6 |
| 20260905141128 | 91 | 90 | 1.0 | 3.0 | 0.00 | 0.00 | 0.00 | 34 | 1021.7 |
| 20260905140314 | 91 | 120 | 1.0 | 3.0 | 0.00 | 0.00 | 0.00 | 34 | 1021.7 |
| 20260905135813 | 90 | 125 | 0.0 | 4.0 | 0.00 | 0.00 | 0.00 | 33 | 1021.7 |
| 20260905135315 | 90 | 100 | 2.0 | 4.0 | 0.00 | 0.00 | 0.00 | 33 | 1021.8 |
| 20260905134814 | 91 | 269 | 0.0 | 4.0 | 0.00 | 0.00 | 0.00 | 34 | 1021.8 |
| 20260905134314 | 91 | 87 | 1.0 | 4.0 | 0.00 | 0.00 | 0.00 | 34 | 1021.9 |
| 20260905133815 | 90 | 82 | 0.0 | 3.0 | 0.00 | 0.00 | 0.00 | 37 | 1022.1 |
| 20260905133314 | 89 | 82 | 0.0 | 5.0 | 0.00 | 0.00 | 0.00 | 36 | 1022.1 |
| 20260905132943 | 89 | 114 | 2.0 | 6.0 | 0.00 | 0.00 | 0.00 | 36 | 1022.2 |
| 20260905132912 | 89 | 107 | 2.0 | 6.0 | 0.00 | 0.00 | 0.00 | 36 | 1022.1 |
| 20260905131813 | 90 | 110 | 2.0 | 6.0 | 0.00 | 0.00 | 0.00 | 37 | 1022.3 |
| 20260905131312 | 90 | 96 | 2.0 | 4.0 | 0.00 | 0.00 | 0.00 | 36 | 1022.3 |
| 20260905130814 | 89 | 49 | 0.0 | 5.0 | 0.00 | 0.00 | 0.00 | 37 | 1022.3 |
| 20260905130312 | 89 | 75 | 0.0 | 5.0 | 0.00 | 0.00 | 0.00 | 39 | 1022.3 |
| 20260905125814 | 89 | 117 | 3.0 | 4.0 | 0.00 | 0.00 | 0.00 | 37 | 1022.4 |
| 20260905125312 | 89 | 109 | 0.0 | 4.0 | 0.00 | 0.00 | 0.00 | 39 | 1022.5 |
| 20260905124810 | 89 | 114 | 1.0 | 3.0 | 0.00 | 0.00 | 0.00 | 39 | 1022.5 |
| 20260905124312 | 88 | 217 | 0.0 | 5.0 | 0.00 | 0.00 | 0.00 | 39 | 1022.6 |
| 20260905123813 | 88 | 125 | 2.0 | 5.0 | 0.00 | 0.00 | 0.00 | 39 | 1022.7 |
| 20260905123312 | 88 | 203 | 0.0 | 6.0 | 0.00 | 0.00 | 0.00 | 42 | 1022.6 |
| 20260905122812 | 87 | 204 | 1.0 | 6.0 | 0.00 | 0.00 | 0.00 | 42 | 1022.7 |
| 20260905122315 | 87 | 109 | 2.0 | 6.0 | 0.00 | 0.00 | 0.00 | 43 | 1022.8 |
| 20260905121812 | 87 | 106 | 2.0 | 3.0 | 0.00 | 0.00 | 0.00 | 42 | 1022.9 |
| 20260905121314 | 87 | 109 | 1.0 | 3.0 | 0.00 | 0.00 | 0.00 | 42 | 1022.9 |
| 20260905120812 | 87 | 286 | 2.0 | 3.0 | 0.00 | 0.00 | 0.00 | 39 | 1022.9 |
| 20260905120312 | 87 | 92 | 0.0 | 5.0 | 0.00 | 0.00 | 0.00 | 39 | 1023.1 |
| 20260905115813 | 87 | 92 | 1.0 | 5.0 | 0.00 | 0.00 | 0.00 | 39 | 1023.0 |
| 20260905115311 | 87 | 83 | 0.0 | 2.0 | 0.00 | 0.00 | 0.00 | 41 | 1023.1 |
| 20260905114811 | 86 | 82 | 1.0 | 5.0 | 0.00 | 0.00 | 0.00 | 44 | 1023.2 |
| 20260905114311 | 86 | 89 | 2.0 | 5.0 | 0.00 | 0.00 | 0.00 | 44 | 1023.2 |
| 20260905113812 | 87 | 104 | 1.0 | 3.0 | 0.00 | 0.00 | 0.00 | 45 | 1023.2 |
| 20260905113441 | 86 | 63 | 1.0 | 4.0 | 0.00 | 0.00 | 0.00 | 48 | 1023.3 |
| 20260905113408 | 86 | 123 | 0.0 | 4.0 | 0.00 | 0.00 | 0.00 | 46 | 1023.2 |
| 20260905112309 | 85 | 87 | 0.0 | 5.0 | 0.00 | 0.00 | 0.00 | 48 | 1023.4 |
| 20260905111812 | 85 | 117 | 3.0 | 6.0 | 0.00 | 0.00 | 0.00 | 48 | 1023.4 |
| 20260905111310 | 85 | 106 | 3.0 | 6.0 | 0.00 | 0.00 | 0.00 | 49 | 1023.3 |
| 20260905111122 | 85 | 269 | 1.0 | 3.0 | 0.00 | 0.00 | 0.00 | 49 | 1023.4 |
| 20260905110625 | 84 | 75 | 0.0 | 4.0 | 0.00 | 0.00 | 0.00 | 52 | 1023.4 |
| 20260905105810 | 84 | 288 | 2.0 | 5.0 | 0.00 | 0.00 | 0.00 | 50 | 1023.4 |
| 20260905105310 | 84 | 135 | 2.0 | 5.0 | 0.00 | 0.00 | 0.00 | 52 | 1023.5 |
| 20260905105120 | 83 | 100 | 1.0 | 5.0 | 0.00 | 0.00 | 0.00 | 53 | 1023.5 |
| 20260905104626 | 84 | 100 | 3.0 | 5.0 | 0.00 | 0.00 | 0.00 | 52 | 1023.6 |
| 20260905103809 | 85 | 90 | 2.0 | 3.0 | 0.00 | 0.00 | 0.00 | 52 | 1023.6 |
| 20260905103310 | 85 | 82 | 0.0 | 2.0 | 0.00 | 0.00 | 0.00 | 55 | 1023.7 |
| 20260905102809 | 84 | 93 | 1.0 | 4.0 | 0.00 | 0.00 | 0.00 | 57 | 1023.8 |
| 20260905102309 | 83 | 83 | 2.0 | 4.0 | 0.00 | 0.00 | 0.00 | 57 | 1023.9 |
| 20260905101810 | 83 | 106 | 2.0 | 3.0 | 0.00 | 0.00 | 0.00 | 59 | 1023.9 |
| 20260905101308 | 82 | 87 | 1.0 | 4.0 | 0.00 | 0.00 | 0.00 | 59 | 1023.9 |
| 20260905100810 | 82 | 87 | 3.0 | 4.0 | 0.00 | 0.00 | 0.00 | 58 | 1024.0 |
| 20260905100310 | 81 | 79 | 0.0 | 3.0 | 0.00 | 0.00 | 0.00 | 61 | 1024.0 |
| 20260905095810 | 80 | 109 | 1.0 | 3.0 | 0.00 | 0.00 | 0.00 | 59 | 1023.9 |
| 20260905095307 | 81 | 207 | 0.0 | 3.0 | 0.00 | 0.00 | 0.00 | 61 | 1024.0 |
| 20260905094808 | 80 | 312 | 0.0 | 3.0 | 0.00 | 0.00 | 0.00 | 62 | 1024.0 |
| 20260905094308 | 80 | 257 | 1.0 | 3.0 | 0.00 | 0.00 | 0.00 | 60 | 1024.1 |
| 20260905093807 | 80 | 63 | 0.0 | 2.0 | 0.00 | 0.00 | 0.00 | 64 | 1024.1 |
| 20260905093634 | 80 | 149 | 0.0 | 2.0 | 0.00 | 0.00 | 0.00 | 65 | 1024.1 |
| 20260905092808 | 79 | 241 | 0.0 | 3.0 | 0.00 | 0.00 | 0.00 | 65 | 1024.0 |
| 20260905092310 | 79 | 99 | 2.0 | 3.0 | 0.00 | 0.00 | 0.00 | 64 | 1024.1 |
| 20260905092117 | 79 | 114 | 0.0 | 2.0 | 0.00 | 0.00 | 0.00 | 65 | 1024.2 |
| 20260905091309 | 78 | 28 | 0.0 | 2.0 | 0.00 | 0.00 | 0.00 | 68 | 1024.2 |
| 20260905090807 | 78 | 305 | 0.0 | 2.0 | 0.00 | 0.00 | 0.00 | 68 | 1024.1 |
| 20260905090309 | 77 | 295 | 0.0 | 2.0 | 0.00 | 0.00 | 0.00 | 70 | 1024.2 |
| 20260905085807 | 76 | 290 | 0.0 | 4.0 | 0.00 | 0.00 | 0.00 | 71 | 1024.1 |
| 20260905085449 | 77 | 161 | 0.0 | 2.0 | 0.00 | 0.00 | 0.00 | 71 | 1024.2 |
| 20260905085415 | 77 | 312 | 2.0 | 4.0 | 0.00 | 0.00 | 0.00 | 69 | 1024.2 |
| 20260905084306 | 76 | 0 | 0.0 | 2.0 | 0.00 | 0.00 | 0.00 | 73 | 1024.4 |
| 20260905083809 | 75 | 313 | 1.0 | 3.0 | 0.00 | 0.00 | 0.00 | 74 | 1024.5 |
| 20260905083307 | 75 | 305 | 1.0 | 3.0 | 0.00 | 0.00 | 0.00 | 73 | 1024.4 |
| 20260905082821 | 75 | 76 | 0.0 | 3.0 | 0.00 | 0.00 | 0.00 | 76 | 1024.2 |
| 20260905082319 | 74 | 283 | 0.0 | 3.0 | 0.00 | 0.00 | 0.00 | 76 | 1024.2 |
| 20260905081806 | 73 | 300 | 0.0 | 4.0 | 0.00 | 0.00 | 0.00 | 77 | 1024.1 |
| 20260905081306 | 73 | 296 | 0.0 | 4.0 | 0.00 | 0.00 | 0.00 | 77 | 1024.2 |
| 20260905080806 | 73 | 298 | 1.0 | 3.0 | 0.00 | 0.00 | 0.00 | 76 | 1024.1 |
| 20260905080307 | 74 | 323 | 1.0 | 5.0 | 0.00 | 0.00 | 0.00 | 76 | 1024.1 |
| 20260905075805 | 74 | 286 | 1.0 | 5.0 | 0.00 | 0.00 | 0.00 | 76 | 1024.0 |
| 20260905075306 | 74 | 85 | 0.0 | 2.0 | 0.00 | 0.00 | 0.00 | 77 | 1023.9 |
| 20260905074809 | 73 | 85 | 0.0 | 3.0 | 0.00 | 0.00 | 0.00 | 80 | 1023.8 |
| 20260905074305 | 72 | 326 | 0.0 | 4.0 | 0.00 | 0.00 | 0.00 | 80 | 1024.0 |
| 20260905073805 | 71 | 244 | 1.0 | 4.0 | 0.00 | 0.00 | 0.00 | 81 | 1023.9 |
| 20260905073432 | 71 | 300 | 0.0 | 2.0 | 0.00 | 0.00 | 0.00 | 82 | 1023.9 |
| 20260905073401 | 71 | 316 | 0.0 | 4.0 | 0.00 | 0.00 | 0.00 | 81 | 1023.8 |
| 20260905072306 | 71 | 320 | 0.0 | 2.0 | 0.00 | 0.00 | 0.00 | 82 | 1023.9 |
| 20260905071806 | 70 | 324 | 0.0 | 2.0 | 0.00 | 0.00 | 0.00 | 83 | 1023.8 |
| 20260905071305 | 70 | 271 | 0.0 | 3.0 | 0.00 | 0.00 | 0.00 | 83 | 1023.8 |
| 20260905070806 | 71 | 293 | 1.0 | 3.0 | 0.00 | 0.00 | 0.00 | 82 | 1023.9 |
| 20260905070305 | 71 | 310 | 1.0 | 2.0 | 0.00 | 0.00 | 0.00 | 83 | 1023.8 |
| 20260905065804 | 70 | 11 | 0.0 | 2.0 | 0.00 | 0.00 | 0.00 | 86 | 1023.7 |
| 20260905065306 | 69 | 293 | 0.0 | 2.0 | 0.00 | 0.00 | 0.00 | 87 | 1023.6 |
| 20260905064804 | 69 | 313 | 0.0 | 1.0 | 0.00 | 0.00 | 0.00 | 88 | 1023.6 |
| 20260905064304 | 68 | 247 | 0.0 | 1.0 | 0.00 | 0.00 | 0.00 | 89 | 1023.5 |
| 20260905063803 | 68 | 234 | 0.0 | 1.0 | 0.00 | 0.00 | 0.00 | 90 | 1023.5 |
| 20260905063618 | 68 | 230 | 0.0 | 1.0 | 0.00 | 0.00 | 0.00 | 91 | 1023.5 |
| 20260905062807 | 67 | 142 | 0.0 | 1.0 | 0.00 | 0.00 | 0.00 | 91 | 1023.5 |
| 20260905062305 | 67 | 142 | 0.0 | 1.0 | 0.00 | 0.00 | 0.00 | 92 | 1023.3 |
| 20260905061803 | 67 | 141 | 0.0 | 0.0 | 0.00 | 0.00 | 0.00 | 92 | 1023.2 |
| 20260905061301 | 66 | 141 | 0.0 | 0.0 | 0.00 | 0.00 | 0.00 | 92 | 1023.3 |
| 20260905060820 | 66 | 141 | 0.0 | 0.0 | 0.00 | 0.00 | 0.00 | 92 | 1023.2 |
| 20260905060302 | 65 | 141 | 0.0 | 0.0 | 0.00 | 0.00 | 0.00 | 92 | 1023.1 |
| 20260905055806 | 65 | 141 | 0.0 | 1.0 | 0.00 | 0.00 | 0.00 | 92 | 1023.0 |
| 20260905055306 | 65 | 141 | 0.0 | 1.0 | 0.00 | 0.00 | 0.00 | 92 | 1023.0 |
| 20260905054803 | 65 | 288 | 0.0 | 0.0 | 0.00 | 0.00 | 0.00 | 91 | 1022.9 |
| 20260905054302 | 65 | 288 | 0.0 | 0.0 | 0.00 | 0.00 | 0.00 | 91 | 1022.8 |
| 20260905053804 | 65 | 288 | 0.0 | 0.0 | 0.00 | 0.00 | 0.00 | 91 | 1022.7 |
| 20260905053302 | 65 | 288 | 0.0 | 0.0 | 0.00 | 0.00 | 0.00 | 90 | 1022.8 |
| 20260905052802 | 65 | 288 | 0.0 | 0.0 | 0.00 | 0.00 | 0.00 | 90 | 1022.7 |
| 20260905052306 | 65 | 288 | 0.0 | 1.0 | 0.00 | 0.00 | 0.00 | 90 | 1022.6 |
| 20260905051802 | 66 | 288 | 0.0 | 1.0 | 0.00 | 0.00 | 0.00 | 90 | 1022.6 |
| 20260905051303 | 66 | 289 | 0.0 | 0.0 | 0.00 | 0.00 | 0.00 | 90 | 1022.5 |
| 20260905050802 | 66 | 289 | 0.0 | 0.0 | 0.00 | 0.00 | 0.00 | 89 | 1022.5 |
| 20260905050301 | 66 | 288 | 0.0 | 0.0 | 0.00 | 0.00 | 0.00 | 89 | 1022.6 |
| 20260905045801 | 66 | 17 | 0.0 | 0.0 | 0.00 | 0.00 | 0.00 | 89 | 1022.5 |
| 20260905045301 | 66 | 313 | 0.0 | 0.0 | 0.00 | 0.00 | 0.00 | 88 | 1022.5 |
| 20260905044802 | 67 | 313 | 0.0 | 0.0 | 0.00 | 0.00 | 0.00 | 88 | 1022.5 |
| 20260905044301 | 67 | 313 | 0.0 | 1.0 | 0.00 | 0.00 | 0.00 | 88 | 1022.5 |
| 20260905043806 | 67 | 313 | 0.0 | 2.0 | 0.00 | 0.00 | 0.00 | 88 | 1022.5 |
| 20260905043300 | 67 | 288 | 0.0 | 3.0 | 0.00 | 0.00 | 0.00 | 88 | 1022.4 |
| 20260905042802 | 67 | 300 | 1.0 | 3.0 | 0.00 | 0.00 | 0.00 | 87 | 1022.4 |
| 20260905042300 | 67 | 293 | 1.0 | 3.0 | 0.00 | 0.00 | 0.00 | 87 | 1022.3 |
| 20260905041801 | 68 | 313 | 1.0 | 4.0 | 0.00 | 0.00 | 0.00 | 87 | 1022.2 |
| 20260905041302 | 67 | 254 | 1.0 | 4.0 | 0.00 | 0.00 | 0.00 | 86 | 1022.3 |
| 20260905040800 | 68 | 272 | 1.0 | 3.0 | 0.00 | 0.00 | 0.00 | 86 | 1022.3 |
| 20260905040300 | 68 | 292 | 1.0 | 3.0 | 0.00 | 0.00 | 0.00 | 86 | 1022.4 |
| 20260905040114 | 67 | 305 | 0.0 | 2.0 | 0.00 | 0.00 | 0.00 | 86 | 1022.4 |
| 20260905035259 | 67 | 299 | 0.0 | 2.0 | 0.00 | 0.00 | 0.00 | 85 | 1022.4 |
| 20260905034800 | 67 | 262 | 1.0 | 2.0 | 0.00 | 0.00 | 0.00 | 85 | 1022.4 |
| 20260905034301 | 67 | 257 | 0.0 | 1.0 | 0.00 | 0.00 | 0.00 | 84 | 1022.3 |
| 20260905033759 | 67 | 257 | 0.0 | 1.0 | 0.00 | 0.00 | 0.00 | 84 | 1022.4 |
| 20260905033300 | 67 | 148 | 0.0 | 1.0 | 0.00 | 0.00 | 0.00 | 84 | 1022.3 |
| 20260905032800 | 67 | 111 | 0.0 | 1.0 | 0.00 | 0.00 | 0.00 | 83 | 1022.4 |
| 20260905032300 | 68 | 111 | 0.0 | 0.0 | 0.00 | 0.00 | 0.00 | 82 | 1022.4 |
| 20260905031800 | 68 | 111 | 0.0 | 2.0 | 0.00 | 0.00 | 0.00 | 83 | 1022.3 |
| 20260905031259 | 68 | 111 | 0.0 | 2.0 | 0.00 | 0.00 | 0.00 | 82 | 1022.3 |
| 20260905030800 | 68 | 134 | 0.0 | 2.0 | 0.00 | 0.00 | 0.00 | 82 | 1022.3 |
| 20260905030259 | 68 | 223 | 0.0 | 3.0 | 0.00 | 0.00 | 0.00 | 82 | 1022.2 |
| 20260905025801 | 68 | 282 | 0.0 | 3.0 | 0.00 | 0.00 | 0.00 | 81 | 1022.3 |
| 20260905025300 | 69 | 289 | 0.0 | 1.0 | 0.00 | 0.00 | 0.00 | 81 | 1022.2 |
| 20260905024759 | 69 | 293 | 0.0 | 2.0 | 0.00 | 0.00 | 0.00 | 81 | 1022.3 |
| 20260905024259 | 69 | 295 | 0.0 | 2.0 | 0.00 | 0.00 | 0.00 | 80 | 1022.3 |
| 20260905023759 | 69 | 282 | 0.0 | 2.0 | 0.00 | 0.00 | 0.00 | 81 | 1022.1 |
| 20260905023256 | 69 | 113 | 0.0 | 0.0 | 0.00 | 0.00 | 0.00 | 80 | 1022.0 |
| 20260905022758 | 69 | 113 | 0.0 | 1.0 | 0.00 | 0.00 | 0.00 | 80 | 1022.0 |
| 20260905022301 | 69 | 113 | 0.0 | 1.0 | 0.00 | 0.00 | 0.00 | 79 | 1021.9 |
| 20260905021758 | 69 | 288 | 0.0 | 1.0 | 0.00 | 0.00 | 0.00 | 79 | 1022.0 |
| 20260905021259 | 69 | 293 | 0.0 | 1.0 | 0.00 | 0.00 | 0.00 | 78 | 1022.1 |
| 20260905020759 | 70 | 97 | 0.0 | 1.0 | 0.00 | 0.00 | 0.00 | 77 | 1022.1 |
| 20260905020257 | 70 | 89 | 0.0 | 1.0 | 0.00 | 0.00 | 0.00 | 77 | 1022.0 |
| 20260905020105 | 70 | 237 | 0.0 | 4.0 | 0.00 | 0.00 | 0.00 | 77 | 1021.8 |
| 20260905015255 | 70 | 271 | 1.0 | 4.0 | 0.00 | 0.00 | 0.00 | 77 | 1021.7 |
| 20260905014757 | 70 | 285 | 1.0 | 4.0 | 0.00 | 0.00 | 0.00 | 77 | 1021.8 |
| 20260905014258 | 70 | 288 | 0.0 | 3.0 | 0.00 | 0.00 | 0.00 | 77 | 1021.8 |
| 20260905013758 | 70 | 279 | 0.0 | 2.0 | 0.00 | 0.00 | 0.00 | 77 | 1021.8 |
| 20260905013255 | 70 | 89 | 0.0 | 0.0 | 0.00 | 0.00 | 0.00 | 76 | 1021.9 |
| 20260905013108 | 70 | 89 | 0.0 | 1.0 | 0.00 | 0.00 | 0.00 | 76 | 1022.0 |
| 20260905012258 | 70 | 89 | 0.0 | 1.0 | 0.00 | 0.00 | 0.00 | 76 | 1022.0 |
| 20260905012110 | 70 | 89 | 0.0 | 0.0 | 0.00 | 0.00 | 0.00 | 75 | 1022.0 |
| 20260905011256 | 71 | 89 | 0.0 | 0.0 | 0.00 | 0.00 | 0.00 | 74 | 1022.0 |
| 20260905010809 | 71 | 89 | 0.0 | 0.0 | 0.00 | 0.00 | 0.00 | 73 | 1022.0 |
| 20260905010254 | 71 | 89 | 0.0 | 0.0 | 0.00 | 0.00 | 0.00 | 73 | 1022.1 |
| 20260905005757 | 72 | 89 | 0.0 | 0.0 | 0.00 | 0.00 | 0.00 | 72 | 1022.1 |
| 20260905005259 | 72 | 89 | 0.0 | 2.0 | 0.00 | 0.00 | 0.00 | 72 | 1022.0 |
| 20260905004756 | 72 | 89 | 0.0 | 2.0 | 0.00 | 0.00 | 0.00 | 72 | 1022.0 |
| 20260905004400 | 72 | 96 | 0.0 | 2.0 | 0.00 | 0.00 | 0.00 | 71 | 1022.0 |
| 20260905003255 | 73 | 111 | 0.0 | 2.0 | 0.00 | 0.00 | 0.00 | 71 | 1022.0 |
| 20260905003113 | 73 | 155 | 0.0 | 3.0 | 0.00 | 0.00 | 0.00 | 70 | 1021.9 |
| 20260905002255 | 73 | 321 | 0.0 | 3.0 | 0.00 | 0.00 | 0.00 | 70 | 1021.8 |
| 20260905001808 | 73 | 107 | 0.0 | 1.0 | 0.00 | 0.00 | 0.00 | 69 | 1021.8 |
| 20260905001255 | 73 | 123 | 0.0 | 1.0 | 0.00 | 0.00 | 0.00 | 69 | 1021.8 |
| 20260905000756 | 73 | 86 | 0.0 | 1.0 | 0.00 | 0.00 | 0.00 | 68 | 1021.8 |
| 20260905000256 | 74 | 86 | 0.0 | 1.0 | 0.00 | 0.00 | 0.00 | 67 | 1021.9 |
| 20260904235754 | 74 | 86 | 0.0 | 1.0 | 0.00 | 0.00 | 0.00 | 66 | 1021.8 |
| 20260904235254 | 74 | 121 | 0.0 | 2.0 | 0.00 | 0.00 | 0.00 | 65 | 1021.7 |
| 20260904234751 | 74 | 103 | 0.0 | 2.0 | 0.00 | 0.00 | 0.00 | 64 | 1021.8 |
| 20260904234729 | 75 | 240 | 1.0 | 5.0 | 0.00 | 0.00 | 0.00 | 62 | 1021.8 |
| 20260904234723 | 75 | 92 | 0.0 | 5.0 | 0.00 | 0.00 | 0.00 | 64 | 1021.8 |
| 20260904233255 | 76 | 109 | 0.0 | 2.0 | 0.00 | 0.00 | 0.00 | 61 | 1021.8 |
| 20260904232755 | 76 | 94 | 0.0 | 3.0 | 0.00 | 0.00 | 0.00 | 61 | 1021.9 |
| 20260904232255 | 76 | 299 | 0.0 | 5.0 | 0.00 | 0.00 | 0.00 | 60 | 1021.8 |
| 20260904231755 | 77 | 298 | 1.0 | 5.0 | 0.00 | 0.00 | 0.00 | 60 | 1021.8 |
| 20260904231254 | 77 | 299 | 1.0 | 3.0 | 0.00 | 0.00 | 0.00 | 59 | 1021.7 |
| 20260904230753 | 77 | 317 | 0.0 | 4.0 | 0.00 | 0.00 | 0.00 | 58 | 1021.7 |
| 20260904230622 | 77 | 252 | 2.0 | 4.0 | 0.00 | 0.00 | 0.00 | 57 | 1021.7 |
| 20260904225754 | 77 | 295 | 2.0 | 9.0 | 0.00 | 0.00 | 0.00 | 57 | 1021.5 |
| 20260904225252 | 77 | 272 | 3.0 | 9.0 | 0.00 | 0.00 | 0.00 | 58 | 1021.4 |
| 20260904224754 | 76 | 258 | 0.0 | 3.0 | 0.00 | 0.00 | 0.00 | 58 | 1021.4 |
| 20260904224558 | 75 | 288 | 1.0 | 3.0 | 0.00 | 0.00 | 0.00 | 59 | 1021.4 |
| 20260904224105 | 75 | 278 | 0.0 | 2.0 | 0.00 | 0.00 | 0.00 | 58 | 1021.4 |
| 20260904223252 | 74 | 62 | 0.0 | 2.0 | 0.00 | 0.00 | 0.00 | 58 | 1021.4 |
| 20260904222755 | 74 | 72 | 0.0 | 2.0 | 0.00 | 0.00 | 0.00 | 58 | 1021.4 |
| 20260904222251 | 73 | 10 | 0.0 | 2.0 | 0.00 | 0.00 | 0.00 | 58 | 1021.3 |
| 20260904222058 | 73 | 97 | 0.0 | 2.0 | 0.00 | 0.00 | 0.00 | 59 | 1021.2 |
| 20260904221254 | 73 | 276 | 0.0 | 0.0 | 0.00 | 0.00 | 0.00 | 58 | 1021.2 |
| 20260904220755 | 73 | 285 | 0.0 | 0.0 | 0.00 | 0.00 | 0.00 | 56 | 1021.2 |
| 20260904220253 | 74 | 285 | 0.0 | 0.0 | 0.00 | 0.00 | 0.00 | 55 | 1021.1 |
| 20260904215752 | 74 | 285 | 0.0 | 1.0 | 0.00 | 0.00 | 0.00 | 54 | 1021.0 |
| 20260904215252 | 74 | 285 | 0.0 | 1.0 | 0.00 | 0.00 | 0.00 | 54 | 1021.0 |
| 20260904214751 | 74 | 285 | 0.0 | 0.0 | 0.00 | 0.00 | 0.00 | 54 | 1020.9 |
| 20260904214249 | 74 | 285 | 0.0 | 0.0 | 0.00 | 0.00 | 0.00 | 55 | 1020.9 |
| 20260904213752 | 75 | 285 | 0.0 | 1.0 | 0.00 | 0.00 | 0.00 | 52 | 1020.8 |
| 20260904213250 | 75 | 285 | 0.0 | 1.0 | 0.00 | 0.00 | 0.00 | 51 | 1020.8 |
| 20260904213104 | 76 | 285 | 0.0 | 1.0 | 0.00 | 0.00 | 0.00 | 51 | 1020.8 |
| 20260904212252 | 76 | 285 | 1.0 | 1.0 | 0.00 | 0.00 | 0.00 | 50 | 1020.7 |
| 20260904212105 | 76 | 285 | 0.0 | 2.0 | 0.00 | 0.00 | 0.00 | 50 | 1020.7 |
| 20260904211250 | 76 | 285 | 1.0 | 2.0 | 0.00 | 0.00 | 0.00 | 49 | 1020.7 |
| 20260904210751 | 76 | 285 | 0.0 | 0.0 | 0.00 | 0.00 | 0.00 | 50 | 1020.6 |
| 20260904210249 | 76 | 285 | 0.0 | 0.0 | 0.00 | 0.00 | 0.00 | 51 | 1020.7 |
| 20260904210100 | 76 | 285 | 0.0 | 0.0 | 0.00 | 0.00 | 0.00 | 51 | 1020.6 |
| 20260904205250 | 76 | 286 | 0.0 | 0.0 | 0.00 | 0.00 | 0.00 | 51 | 1020.6 |